Regional Weather Roundup
Issued by NWS

Home | Current Version | Previous Version | Graphics & Text | Print | Product List | Glossary On
Versions: 1 2 3 4 5 6 7 8 9 10 11 12 13 14 15 16 17 18 19 20 21 22 23 24 25 26 27 28 29 30 31 32 33 34 35 36 37 38 39 40 41 42 43 44 45 46 47 48 49 50
000
ASUS45 KBOU 300007
RWRCO

WEATHER ROUNDUP FOR COLORADO
NATIONAL WEATHER SERVICE DENVER/BOULDER CO
600 PM MDT TUE JUL 29 2014

NOTE: "FAIR" INDICATES FEW OR NO CLOUDS BELOW 12000 FEET WITH NO
SIGNIFICANT WEATHER AND/OR OBSTRUCTIONS TO VISIBILITY.

COZ001>005-013-030-031-300100-
...NORTHWEST COLORADO...

CITY           SKY/WX    TMP DP  RH WIND       PRES   REMARKS
CRAIG          PTSUNNY   66  58  75 E9        30.24F
HAYDEN         PTSUNNY   66  52  59 E7        30.27F
MEEKER         CLOUDY    69  54  58 SW9       30.25F
MOUNT WERNER   NOT AVBL
STEAMBOAT SPGS PTSUNNY   65  52  63 CALM      30.30F
WALDEN         CLOUDY    55  52  88 SE3       30.37F
$$

COZ006>008-011-300100-
...WEST CENTRAL VALLEYS...

CITY           SKY/WX    TMP DP  RH WIND       PRES   REMARKS
GRAND JUNCTION MOSUNNY   79  59  50 SW12      30.13F
MONTROSE       LGT RAIN  72  58  61 SE10      30.23F
EAGLE          PTSUNNY   75  55  50 CALM      30.28F
RIFLE          TSTM      70  58  65 NW7       30.21F
DELTA          PTSUNNY   78  58  49 SW13      30.19S
NUCLA          LGT RAIN  68  55  64 S6        30.31S
$$

COZ017>023-064>068-300100-
...SOUTHWEST COLORADO...

CITY           SKY/WX    TMP DP  RH WIND       PRES   REMARKS
DURANGO        MOSUNNY   74  49  41 N18       30.24R
CORTEZ         SUNNY     77  50  38 N9        30.23R
PAGOSA SPRINGS PTSUNNY   70  51  51 NE9       30.31S THUNDER
TELLURIDE      CLOUDY    57  52  82 SE5       30.46F
WOLF CREEK PAS NOT AVBL
$$

COZ009-010-012-014-032>034-037-058>063-300100-
...CENTRAL COLORADO...

CITY           SKY/WX    TMP DP  RH WIND       PRES   REMARKS
ASPEN          PTSUNNY   63  53  70 SE5       30.35F
BUENA VISTA    PTSUNNY   68  47  46 NW15G22   30.32S
COPPER MTN     CLOUDY    52  46  82 W23G29    30.62F
BERTHOUD PASS  HAZE      41  28  60 NW7G17    30.67S THUNDER VSB<1/4
COTTONWOOD PAS PTSUNNY   66  43  42 W13G20    30.46S
GUNNISON       CLOUDY    68  46  45 NW5       30.35F
KREMMLING      CLOUDY    63  52  67 CALM      30.34F
LEADVILLE      PTSUNNY   56  45  66 NW10      30.46F
MONARCH PASS   RAIN      46  45  93 W16G28    30.71S
SALIDA         PTSUNNY   73  51  46 CALM      30.34F
SUNLIGHT       CLOUDY    54  52  94 CALM      30.57F
WILKERSON PASS CLOUDY    52  46  82 CALM      30.58F
$$

COZ069>075-300100-
...SAN LUIS VALLEY/SANGRE DE CRISTO MOUNTAINS...

CITY           SKY/WX    TMP DP  RH WIND       PRES   REMARKS
ALAMOSA        CLOUDY    63  54  72 W7        30.31S
LA VETA PASS   PTSUNNY   59  48  67 SW9G18    30.48F THUNDER
SAGUACHE       TSTM      59  54  82 NW20      30.37R
$$

COZ035-036-038>040-300100-
...NORTHERN COLORADO FRONT RANGE...

CITY           SKY/WX    TMP DP  RH WIND       PRES   REMARKS
DENVER INTL AP CLOUDY    63  60  90 N13       30.22F
DMNS CITY PARK   N/A     64  60  85 N7G13     30.23S
AURORA         CLOUDY    62  60  92 E3        30.24S
FRONT RANGE AP DRIZZLE   66  63  88 NE5       30.23R
ERIE MUNI ARPT CLOUDY    63  61  94 N10       30.22F
BOULDER MUN AP LGT RAIN  63  61  94 N10       30.24F
CENTENNIAL     CLOUDY    62  59  90 NE6       30.24R
BROOMFIELD     LGT RAIN  63  61  94 N12G18    30.26R
FORT COLLINS   CLOUDY    63  61  94 NW9       30.24F
LONGMONT       CLOUDY    67  61  81 NW7       30.24F
$$

COZ041-046-047-076>085-087-088-300100-
...PIKES PEAK/PALMER DIVIDE AND SOUTHERN FOOTHILLS...

CITY           SKY/WX    TMP DP  RH WIND       PRES   REMARKS
COLO. SPRINGS  CLOUDY    65  59  81 E12       30.23S
A. F. ACADEMY  CLOUDY    66  58  75 N7        30.25R
ELLICOTT       TSTM      59  59 100 NE10      30.25R VSB 1/2
FALCON         CLOUDY    60  58  94 NE10      30.28S
FORT CARSON    CLOUDY    67  63  86 NE14      30.20S
LIMON          LGT RAIN  63  59  87 E12       30.20S
MONUMENT HILL  RAIN      57  55  94 E7        30.29R
TRINIDAD       CLOUDY    72  57  59 W14       30.18F
$$

COZ042>045-048>051-090-091-300100-
...NORTHEAST COLORADO...

CITY           SKY/WX    TMP DP  RH WIND       PRES   REMARKS
GREELEY ARPT   CLOUDY    63  57  82 NW7       30.21F
AKRON          CLOUDY    70  61  73 S10       30.13F
BURLINGTON     CLOUDY    77  60  55 SE10      30.12S
WRAY             N/A     81  55  41 E22G30    30.08F
STERLING       CLOUDY    70  64  83 W14       30.11R
HOLYOKE        PTSUNNY   79  59  50 E18       30.12S
FORT MORGAN    CLOUDY    64  61  88 NW15G24   30.19R
$$

COZ086-089-092>099-300100-
...SOUTHEAST COLORADO...

CITY           SKY/WX    TMP DP  RH WIND       PRES   REMARKS
PUEBLO         CLOUDY    77  60  55 S9        30.08F
LA JUNTA       CLOUDY    78  61  55 S12G20    30.04F
LAMAR          CLOUDY    80  60  50 SE23      30.01F
SPRINGFIELD      N/A     71  62  73 SE10      30.11S
$$


USA.gov is the U.S. government's official web portal to all federal, state and local government web resources and services.